Location: Wald
(31.7579°N, 86.6655°W)
Time: 21:00:03
(UTC+00:00)

Meteor 1-13 Rocket - Pass Details

Date: 14 July 2020
Orbit: 830 x 913 km, 81.3° (Epoch: 13 August)

Event Time Altitude Azimuth Distance (km) Brightness Sun altitude
Rises 07:59:41 0° 353° (N) 3,463 8.1 -28.6°
Reaches altitude 10° 08:02:09 10° 354° (N) 2,510 7.2 -28.3°
Maximum altitude 08:07:51 83° 82° (E) 860 4.1 -27.6°
Enters shadow 08:08:12 78° 141° (SE) 872 4.1 -27.6°
